Total_Precipitation_Accumulation
0.82 0.89 0.99 1.09 1.26 1.32 1.30 1.34 1.30 1.27 1.31 1.34 1.36 1.39 1.35 1.31 1.33 1.41 1.35 1.45 1.53 1.62 1.62 1.56 1.56 1.69 1.72 1.61 1.66 1.72 1.89 2.09 2.02 1.91 2.07 2.11 1.99 1.79 1.74 1.74 1.68 1.60 1.41
0.75 0.84 0.95 1.04 1.14 1.24 1.21 1.27 1.37 1.35 1.34 1.33 1.36 1.44 1.36 1.36 1.40 1.32 1.35 1.44 1.53 1.57 1.66 1.80 1.81 1.83 1.78 1.70 1.76 1.81 1.95 2.19 2.21 2.08 2.06 2.09 2.02 1.92 1.81 1.64 1.46 1.40 1.39
0.82 0.92 0.95 0.92 1.00 1.14 1.20 1.24 1.31 1.38 1.42 1.39 1.35 1.38 1.42 1.48 1.50 1.36 1.32 1.32 1.30 1.29 1.43 1.68 1.92 2.16 2.06 1.91 1.85 1.83 1.90 2.02 2.20 2.08 2.02 2.17 2.15 2.03 1.88 1.65 1.47 1.39 1.21
0.75 0.81 0.89 0.92 1.06 1.20 1.26 1.28 1.32 1.34 1.39 1.45 1.47 1.46 1.45 1.44 1.42 1.40 1.42 1.37 1.30 1.23 1.27 1.38 1.52 1.74 1.93 2.04 1.89 1.76 1.81 1.93 2.09 2.13 2.21 2.47 2.54 2.37 2.06 1.80 1.67 1.52 1.35
0.94 1.03 1.08 1.09 1.17 1.30 1.38 1.35 1.39 1.42 1.42 1.57 1.64 1.61 1.56 1.52 1.42 1.49 1.58 1.47 1.46 1.38 1.35 1.33 1.28 1.38 1.52 1.68 1.71 1.85 1.89 1.90 2.03 2.14 2.36 2.78 2.80 2.54 2.10 1.86 1.78 1.71 1.51
1.32 1.44 1.42 1.43 1.47 1.49 1.51 1.49 1.55 1.62 1.79 1.85 1.80 1.76 1.72 1.55 1.62 1.61 1.58 1.57 1.63 1.61 1.56 1.50 1.38 1.30 1.32 1.40 1.46 1.57 1.74 1.82 1.91 2.02 2.22 2.53 2.65 2.51 2.23 2.00 1.79 1.66 1.51
1.31 1.43 1.50 1.52 1.56 1.66 1.69 1.70 1.73 1.80 1.87 1.95 2.01 2.00 1.95 1.98 1.88 1.60 1.52 1.53 1.63 1.67 1.74 1.77 1.49 1.28 1.35 1.32 1.40 1.41 1.42 1.54 1.64 1.76 1.97 2.18 2.47 2.56 2.41 2.04 1.86 1.70 1.46
1.42 1.53 1.66 1.67 1.72 1.76 1.76 1.71 1.71 1.79 1.78 1.74 1.74 1.71 1.74 1.75 1.70 1.46 1.37 1.28 1.42 1.49 1.50 1.49 1.47 1.35 1.25 1.26 1.28 1.23 1.18 1.20 1.25 1.29 1.43 1.70 2.00 2.34 2.52 2.30 2.11 1.91 1.66
1.60 1.75 1.87 1.96 2.03 1.97 1.87 1.86 1.83 1.81 1.68 1.59 1.54 1.52 1.54 1.60 1.59 1.40 1.28 1.18 1.23 1.26 1.25 1.26 1.30 1.22 1.20 1.07 1.03 1.05 1.03 1.00 0.98 1.00 1.07 1.23 1.49 1.80 2.15 2.28 2.01 1.68 1.53
1.58 1.68 1.85 1.96 2.11 2.18 2.11 2.08 2.00 1.94 1.86 1.78 1.71 1.70 1.68 1.73 1.77 1.53 1.38 1.26 1.32 1.33 1.40 1.38 1.33 1.19 1.13 0.96 0.90 0.94 0.91 0.84 0.85 0.83 0.81 0.87 0.99 1.26 1.63 1.77 1.83 1.59 1.35
1.46 1.47 1.62 1.83 2.01 2.12 2.20 2.15 2.13 2.07 1.99 1.82 1.69 1.65 1.67 1.75 1.82 1.63 1.45 1.25 1.29 1.40 1.47 1.53 1.48 1.33 1.04 0.88 0.77 0.77 0.76 0.77 0.81 0.82 0.81 0.84 0.97 1.14 1.30 1.51 1.66 1.60 1.35
1.55 1.65 1.75 1.87 1.92 1.93 1.99 2.03 2.07 2.05 2.00 1.89 1.67 1.47 1.42 1.43 1.43 1.41 1.22 1.09 1.10 1.22 1.36 1.50 1.50 1.37 1.12 0.93 0.78 0.70 0.67 0.63 0.68 0.74 0.75 0.74 0.78 0.90 1.08 1.34 1.54 1.54 1.40
1.77 1.80 1.83 1.91 1.95 2.00 1.99 1.95 1.92 1.86 1.75 1.63 1.47 1.39 1.34 1.31 1.23 1.11 0.92 0.82 0.84 0.94 1.10 1.37 1.46 1.34 1.18 0.99 0.88 0.80 0.69 0.60 0.63 0.64 0.60 0.57 0.62 0.73 0.94 1.27 1.62 1.76 1.67
1.77 1.69 1.63 1.62 1.65 1.70 1.75 1.76 1.76 1.70 1.64 1.54 1.41 1.37 1.32 1.27 1.16 1.07 0.98 0.87 0.86 0.92 0.96 1.13 1.25 1.26 1.13 1.04 0.93 0.80 0.68 0.63 0.62 0.61 0.61 0.64 0.72 0.81 0.94 1.10 1.44 1.72 1.76
1.76 1.72 1.71 1.69 1.64 1.64 1.69 1.73 1.63 1.58 1.57 1.47 1.35 1.41 1.39 1.28 1.23 1.18 1.13 1.07 1.02 1.05 1.02 1.08 1.19 1.28 1.27 1.22 1.18 1.06 0.93 0.85 0.77 0.73 0.79 0.80 0.85 0.91 0.94 1.04 1.27 1.48 1.49
1.76 1.67 1.68 1.73 1.75 1.73 1.71 1.73 1.76 1.59 1.54 1.42 1.34 1.32 1.31 1.23 1.15 1.02 1.00 0.97 0.88 0.83 0.77 0.87 1.05 1.22 1.35 1.38 1.39 1.32 1.18 1.06 0.96 0.94 0.95 0.93 0.92 0.97 1.00 1.03 1.18 1.36 1.39
1.78 1.78 1.79 1.78 1.80 1.75 1.62 1.56 1.60 1.53 1.37 1.28 1.24 1.16 1.10 1.04 0.92 0.85 0.82 0.80 0.73 0.65 0.60 0.74 0.90 1.04 1.21 1.35 1.38 1.33 1.24 1.21 1.22 1.19 1.18 1.13 1.07 1.05 1.09 1.07 1.09 1.22 1.29
1.70 1.77 1.82 1.82 1.78 1.72 1.62 1.54 1.48 1.46 1.35 1.20 1.11 1.04 0.98 0.91 0.90 0.89 0.83 0.77 0.69 0.64 0.60 0.75 0.88 1.01 1.15 1.30 1.33 1.31 1.32 1.33 1.33 1.28 1.29 1.29 1.27 1.22 1.21 1.18 1.13 1.13 1.22
1.42 1.40 1.42 1.46 1.47 1.42 1.33 1.27 1.21 1.18 1.17 1.16 1.03 0.87 0.87 0.84 0.91 0.97 0.86 0.76 0.76 0.74 0.72 0.76 0.82 0.92 1.08 1.24 1.35 1.38 1.41 1.40 1.38 1.39 1.38 1.38 1.41 1.37 1.27 1.25 1.29 1.29 1.25
1.15 1.22 1.15 1.07 1.07 1.09 1.05 1.00 0.96 0.98 1.02 1.09 1.03 0.86 0.79 0.79 0.92 1.04 0.90 0.89 0.90 0.85 0.83 0.84 0.83 0.89 1.06 1.23 1.36 1.45 1.50 1.45 1.39 1.39 1.39 1.39 1.39 1.39 1.31 1.31 1.40 1.38 1.25
0.93 0.88 0.88 0.78 0.78 0.88 0.93 0.90 0.87 0.91 0.98 1.05 0.98 0.82 0.74 0.74 0.98 1.07 0.99 0.97 0.94 0.90 0.90 0.87 0.82 0.87 1.03 1.20 1.29 1.39 1.47 1.47 1.40 1.37 1.43 1.47 1.40 1.36 1.32 1.34 1.38 1.42 1.37
0.64 0.62 0.59 0.56 0.62 0.68 0.71 0.77 0.85 0.91 0.95 0.98 0.91 0.79 0.77 0.81 0.99 1.04 0.98 0.97 0.97 0.94 0.91 0.90 0.87 0.88 0.99 1.12 1.19 1.29 1.41 1.42 1.37 1.36 1.42 1.51 1.46 1.38 1.35 1.35 1.36 1.43 1.47
0.54 0.53 0.51 0.52 0.57 0.58 0.60 0.68 0.84 0.93 0.95 0.94 0.91 0.89 0.88 0.92 0.97 0.99 0.96 0.91 0.90 0.92 0.93 0.95 0.96 0.95 1.00 1.10 1.14 1.22 1.36 1.36 1.32 1.32 1.38 1.43 1.42 1.38 1.37 1.34 1.33 1.39 1.44
0.47 0.50 0.51 0.48 0.47 0.51 0.56 0.61 0.67 0.73 0.80 0.84 0.85 0.84 0.83 0.84 0.87 0.87 0.88 0.87 0.88 0.89 0.92 0.98 1.00 1.01 1.04 1.08 1.09 1.10 1.19 1.20 1.13 1.11 1.16 1.25 1.28 1.31 1.31 1.29 1.25 1.27 1.32
0.48 0.53 0.55 0.56 0.54 0.54 0.56 0.60 0.64 0.66 0.70 0.72 0.76 0.81 0.83 0.82 0.84 0.87 0.90 0.91 0.90 0.90 0.88 0.88 0.92 0.95 0.93 0.89 0.91 0.93 1.01 0.97 0.90 0.89 0.98 1.10 1.14 1.16 1.18 1.17 1.18 1.23 1.30
0.56 0.59 0.63 0.66 0.64 0.62 0.64 0.69 0.72 0.72 0.74 0.73 0.77 0.81 0.86 0.90 0.91 0.93 0.94 0.93 0.91 0.91 0.87 0.88 0.91 0.86 0.84 0.82 0.78 0.80 0.78 0.73 0.73 0.78 0.81 0.90 1.00 1.03 1.07 1.10 1.08 1.13 1.20